Spokane Felts, WA
on Saturday, November 3, 2012

Saturday
Previous Day Next Day
Daily Summary
 ActualAverageRecord
Temperature
Mean Temperature °F 41°F  
Max Temperature 53°F 50°F 61°F (2001)
Min Temperature 43°F 33°F 18°F (2002)
Degree Days
Heating Degree Days 17 24  
Month to date heating degree days 44 70  
Since 1 July heating degree days 603 807  
Cooling Degree Days 0 0  
Month to date cooling degree days 0 0  
Year to date cooling degree days 509 406  
Moisture
Dew Point 44°F   
Average Humidity 85    
Maximum Humidity 93    
Minimum Humidity 77    
Precipitation
Precipitation 0.28 in 0.07 in 0.28 in (2012)
Month to date precipitation 0.42 0.19  
Year to date precipitation 16.01 13.14  
Wind
Wind Speed 2 mph   
Max Wind Speed 8 mph   
Max Gust Speed 12 mph   
Visibility 8 miles   
Events Fog , Rain   

Key: T is trace of precipitation, MM is missing value
Source: NWS Daily Summary
Time(PDT)TemperatureDew PointHumidity Pressure Visibility Wind DirectionWind SpeedGust SpeedPrecipitationEvents Conditions
12:53 AM 45.0°F 42.1°F 90% 30.06 in 7.0 miles Calm Calm - N/A   Overcast
1:53 AM 46.0°F 42.1°F 86% 30.06 in 10.0 miles West 3.5 mph - N/A   Overcast
2:23 AM 46.4°F 42.8°F 87% 30.06 in 10.0 miles Calm Calm - N/A   Overcast
2:53 AM 46.0°F 42.1°F 86% 30.06 in 10.0 miles Calm Calm - N/A   Overcast
3:53 AM 46.0°F 42.1°F 86% 30.05 in 9.0 miles Calm Calm - N/A   Overcast
4:53 AM 44.1°F 39.9°F 85% 30.06 in 5.0 miles Calm Calm - N/A   Clear
5:53 AM 43.0°F 39.9°F 89% 30.08 in 10.0 miles Calm Calm - N/A   Mostly Cloudy
6:53 AM 45.0°F 42.1°F 90% 30.08 in 10.0 miles Calm Calm - N/A   Overcast
7:53 AM 46.0°F 41.0°F 83% 30.08 in 10.0 miles ESE 3.5 mph - 0.00 in Rain Light Rain
8:53 AM 46.0°F 42.1°F 86% 30.10 in 8.0 miles Calm Calm - 0.01 in Fog , Rain Light Rain
9:53 AM 46.9°F 43.0°F 86% 30.10 in 8.0 miles Calm Calm - 0.01 in   Overcast
10:53 AM 48.0°F 44.1°F 86% 30.10 in 6.0 miles Calm Calm - 0.00 in Rain Light Rain
11:18 AM 48.2°F 44.6°F 87% 30.09 in 2.5 miles Calm Calm - 0.04 in Rain Rain
11:50 AM 48.2°F 44.6°F 87% 30.09 in 3.0 miles Calm Calm - 0.13 in Rain Rain
11:53 AM 48.0°F 45.0°F 89% 30.11 in 3.0 miles NNE 3.5 mph - 0.13 in Rain Rain
12:53 PM 48.9°F 46.0°F 90% 30.10 in 2.0 miles Calm Calm - 0.10 in Rain Light Rain
1:53 PM 50.0°F 46.9°F 89% 30.09 in 3.0 miles Calm Calm - 0.02 in   Overcast
2:07 PM 51.8°F 46.4°F 82% 30.07 in 3.0 miles Calm Calm - N/A   Overcast
2:53 PM 52.0°F 46.9°F 83% 30.09 in 10.0 miles Calm Calm - N/A   Overcast
3:53 PM 53.1°F 48.0°F 83% 30.10 in 10.0 miles SW 3.5 mph - N/A   Overcast
4:53 PM 53.1°F 46.9°F 80% 30.10 in 10.0 miles SW 3.5 mph - N/A   Mostly Cloudy
5:53 PM 53.1°F 46.9°F 80% 30.12 in 10.0 miles West 3.5 mph - N/A   Mostly Cloudy
6:25 PM 53.6°F 46.4°F 77% 30.12 in 10.0 miles Calm Calm - N/A   Overcast
6:53 PM 52.0°F 46.9°F 83% 30.13 in 10.0 miles Calm Calm - N/A   Mostly Cloudy
7:53 PM 53.1°F 46.0°F 77% 30.12 in 10.0 miles SW 3.5 mph - N/A   Clear
8:53 PM 53.1°F 46.0°F 77% 30.13 in 10.0 miles Variable 3.5 mph - N/A   Mostly Cloudy
9:53 PM 53.1°F 46.0°F 77% 30.15 in 10.0 miles WSW 3.5 mph - N/A   Overcast
10:53 PM 52.0°F 46.9°F 83% 30.16 in 10.0 miles Variable 4.6 mph - 0.01 in   Overcast
11:53 PM 53.1°F 46.0°F 77% 30.16 in 10.0 miles SSW 4.6 mph - N/A   Mostly Cloudy
Moon Phase
Nov. 03 Nov. 06 Nov. 13 Nov. 20 Nov. 28
Sunrise:07:37 AM (PDT) Moon Rise:09:06 PM (PDT)11/3
Sunset:05:27 PM (PDT) Moon Set:11:52 AM (PDT)11/3

Copyright © 2014 The Weather Underground, Inc.